Back to catalog

STARLINK-1478

AliveCommunicationsVLEO
NORAD 45755·PAYLOAD·🇺🇸 United States

Launched Jun 13, 2020 from Cape Canaveral Space Force Station

Loading…

Next Passes (next 24 hours)

TLE

FreshSource: CelesTrak SupGP

Epoch: Sep 14, 2026, 13:24 UTC

1 45755C 20038AB  26257.55881944  .00132230  00000+0  48496-3 0  2576
2 45755  53.0394 343.5873 0004328 337.0581 145.3082 15.87510341    18

Track STARLINK-1478 in real time with AllMySat

Download on the App Store